Change the Weather History Date:

Thursday, November 28, 2013

  Actual Average Record
Temperature  
Mean Temperature 46 °F -  
Max Temperature 60 °F 48 °F - ()
Min Temperature 32 °F 24 °F - ()
Degree Days  
Heating Degree Days 19    
Moisture  
Dew Point 28 °F    
Average Humidity 59    
Maximum Humidity 87    
Minimum Humidity 25    
Precipitation  
Precipitation 0.00 in 0.03 in - ()
Sea Level Pressure  
Sea Level Pressure 30.29 in    
Wind  
Wind Speed 3 mph ()    
Max Wind Speed 7 mph    
Max Gust Speed -    
Visibility 2.6 miles    
Events      
T = Trace of Precipitation, MM = Missing Value Source: Averaged Metar Reports

Daily Weather History Graph

Daily Weather History Graph

Search for Another Location

Airport or City:

Trip Planner

Search our weather history database for the weather conditions in past years. The results will help you decide how hot, cold, wet, or windy it might be!

Date:

Astronomy

Nov. 28, 2013 Rise Set
Actual Time 6:38 AM AFT 4:43 PM AFT
Civil Twilight 6:11 AM AFT 5:10 PM AFT
Nautical Twilight 5:40 AM AFT 5:41 PM AFT
Astronomical Twilight 5:10 AM AFT 6:11 PM AFT
Moon 1:26 AM AFT 1:27 PM AFT
Length of Visible Light 10h 59m
Length of Day
10h 04m
Waning Crescent, 26% of the Moon is Illuminated
Nov 28
Waning Crescent
Dec 3
New
Dec 9
First Quarter
Dec 17
Full
Dec 25
Last Quarter

Hourly Weather History & Observations

Time (AFT) Temp. Windchill Dew Point Humidity Pressure Visibility Wind Dir Wind Speed Gust Speed Precip Events Conditions
12:20 AM 39.2 °F 37.0 °F 30.2 °F 70% 30.24 in 1.2 mi NW 3.5 mph - N/A   Haze
1:20 AM 37.4 °F - 30.2 °F 75% 30.21 in 1.2 mi SE 2.3 mph - N/A   Haze
2:20 AM 35.6 °F 32.8 °F 30.2 °F 81% 30.24 in 1.2 mi Variable 3.5 mph - N/A   Haze
3:20 AM 37.4 °F 34.9 °F 30.2 °F 75% 30.24 in 1.6 mi WNW 3.5 mph - N/A   Haze
4:20 AM 35.6 °F 32.8 °F 30.2 °F 81% 30.24 in 2.2 mi NNW 3.5 mph - N/A   Haze
5:20 AM 32.0 °F 28.7 °F 28.4 °F 87% 30.24 in 2.5 mi Variable 3.5 mph - N/A   Mist
5:51 AM 33.8 °F 30.8 °F 30.2 °F 87% 30.27 in 3.7 mi Variable 3.5 mph - N/A   Unknown
5:53 AM 33.8 °F 30.8 °F 30.2 °F 87% 30.27 in 3.7 mi Variable 3.5 mph - N/A   Unknown
6:20 AM 35.6 °F 29.9 °F 28.4 °F 75% 30.27 in 5.0 mi South 6.9 mph - N/A   Unknown
7:20 AM 33.8 °F 28.6 °F 28.4 °F 81% 30.30 in - NNW 5.8 mph - N/A   Clear
8:20 AM 44.6 °F 41.4 °F 30.2 °F 57% 30.30 in 4.3 mi NW 5.8 mph - N/A   Unknown
9:20 AM 50.0 °F - 30.2 °F 47% 30.33 in 4.3 mi NW 4.6 mph - N/A   Unknown
10:20 AM 51.8 °F - 30.2 °F 44% 30.33 in 3.7 mi NW 2.3 mph - N/A   Unknown
11:20 AM 53.6 °F - 30.2 °F 41% 30.33 in 3.1 mi South 2.3 mph - N/A   Haze
12:20 PM 57.2 °F - 28.4 °F 33% 30.30 in 3.1 mi West 2.3 mph - N/A   Haze
1:20 PM 59.0 °F - 26.6 °F 29% 30.27 in 3.1 mi NNW 4.6 mph - N/A   Haze
2:20 PM 60.8 °F - 24.8 °F 25% 30.27 in 3.7 mi WNW 3.5 mph - N/A   Unknown
3:20 PM 59.0 °F - 23.0 °F 25% 30.27 in 3.7 mi NW 4.6 mph - N/A   Unknown
4:20 PM 57.2 °F - 21.2 °F 25% 30.27 in 3.7 mi Variable 1.2 mph - N/A   Unknown
5:20 PM 50.0 °F - 24.8 °F 37% 30.27 in 3.1 mi Calm Calm - N/A   Haze
6:20 PM 48.2 °F - 28.4 °F 46% 30.30 in 2.5 mi SSW 4.6 mph - N/A   Haze
7:20 PM 42.8 °F - 28.4 °F 57% 30.33 in 2.2 mi NW 2.3 mph - N/A   Haze
8:06 PM 41.0 °F 38.0 °F 28.4 °F 61% 30.36 in 1.6 mi ESE 4.6 mph - N/A   Smoke
8:20 PM 42.8 °F 40.1 °F 28.4 °F 57% 30.36 in 1.2 mi SSE 4.6 mph - N/A   Smoke
9:20 PM 39.2 °F - 28.4 °F 65% 30.36 in 1.1 mi Variable 2.3 mph - N/A   Smoke
10:20 PM 39.2 °F 37.0 °F 30.2 °F 70% 30.36 in 0.9 mi West 3.5 mph - N/A   Smoke
11:20 PM 39.2 °F 35.9 °F 30.2 °F 70% 30.36 in 0.9 mi North 4.6 mph - N/A   Smoke